SCP
0 0 0 0 0 0 0 0 0 0 0 0 0 0 0 0 0 0 0 0 0 0 0 0 0 0 0 0 0 0 0 0 0 0 0 0 0 0 0 1 1 2 2
0 0 0 0 0 0 0 0 0 0 0 0 0 0 0 0 0 0 0 0 0 0 0 0 0 0 0 0 0 0 0 0 0 0 0 0 0 0 0 1 1 2 2
0 0 0 0 0 0 0 0 0 0 0 0 0 0 0 0 0 0 0 0 0 0 0 0 0 0 0 0 0 0 0 0 0 0 0 0 0 0 0 1 1 1 1
0 0 0 0 0 0 0 0 0 0 0 0 0 0 0 0 0 0 0 0 0 0 0 0 0 0 0 0 0 0 0 0 0 0 0 0 0 0 1 1 1 1 1
0 0 0 0 0 0 0 0 0 0 0 0 0 0 0 0 0 0 0 0 0 0 0 0 0 0 0 0 0 0 0 0 0 0 0 0 0 1 1 0 0 0 0
0 0 0 0 0 0 0 0 0 0 0 0 0 0 0 0 0 0 0 0 0 0 0 0 0 0 0 0 0 0 0 0 0 0 0 0 1 1 1 0 0 0 0
0 0 0 0 0 0 0 0 0 0 0 0 0 0 0 0 0 0 0 0 0 0 0 0 0 0 0 0 0 0 0 0 0 0 0 0 0 1 1 1 0 0 0
0 0 0 0 0 0 0 0 0 0 0 0 0 0 0 0 0 0 0 0 0 0 0 0 0 0 0 0 0 0 0 0 0 0 0 0 0 1 1 1 1 0 0
0 0 0 0 0 0 0 0 0 0 0 0 0 0 0 0 0 0 0 0 0 0 0 0 0 0 0 0 0 0 0 0 0 0 0 0 0 0 1 1 1 0 0
0 0 0 0 0 0 0 0 0 0 0 0 0 0 0 0 0 0 0 0 0 0 0 0 0 0 0 0 0 0 0 0 0 0 0 0 0 0 0 0 0 0 0
0 0 0 0 0 0 0 0 0 0 0 0 0 0 0 0 0 0 0 0 0 0 0 0 0 0 0 0 0 0 0 0 0 0 0 0 0 0 0 0 0 0 0
0 0 0 0 0 0 0 0 0 0 0 0 0 0 0 0 0 0 0 0 0 0 0 0 0 0 0 0 0 0 0 0 0 0 0 0 0 0 0 0 0 0 1
0 0 0 0 0 0 0 0 0 0 0 0 0 0 0 0 0 0 0 0 0 0 0 0 0 0 0 0 0 0 0 0 0 0 0 0 0 1 1 1 1 1 1
0 0 0 0 0 0 0 0 0 0 0 0 0 0 0 0 0 0 0 0 0 0 0 0 0 0 0 0 0 0 0 0 0 0 0 0 1 1 1 1 1 1 1
0 0 0 0 0 0 0 0 0 0 0 0 0 0 0 0 0 0 0 0 0 0 0 0 0 0 0 0 0 0 0 0 0 0 0 0 1 1 1 1 1 1 1
0 0 0 0 0 0 0 0 0 0 0 0 0 0 0 0 0 0 0 0 0 0 0 0 0 0 0 0 0 0 0 0 0 0 0 0 1 1 1 1 1 1 1
0 0 0 0 0 0 0 0 0 0 0 0 0 0 0 0 0 0 0 0 0 0 0 0 0 0 0 0 0 0 0 0 0 0 0 0 1 1 1 1 1 0 0
0 0 0 0 0 0 0 0 0 0 0 0 0 0 0 0 0 0 0 0 0 0 0 0 0 0 0 0 0 0 0 0 0 0 0 1 1 1 1 1 1 0 0
0 0 0 0 0 0 0 0 0 0 0 0 0 0 0 0 0 0 0 0 0 0 0 0 0 0 0 0 0 0 0 0 0 0 0 0 1 1 1 1 0 0 0
0 0 0 0 0 0 0 0 0 0 0 0 0 0 0 0 0 0 0 0 0 0 0 0 0 0 0 0 0 0 0 0 0 0 0 0 0 0 0 0 0 0 0
0 0 0 0 0 0 0 0 0 0 0 0 0 0 0 0 0 0 0 0 0 0 0 0 0 0 0 0 0 0 0 0 0 0 0 0 0 0 0 0 0 0 0
0 0 0 0 0 0 0 0 0 0 0 0 0 0 0 0 0 0 0 0 0 0 0 0 0 0 0 0 0 0 0 0 0 0 0 0 0 0 0 0 0 0 0
0 0 0 0 0 0 0 0 0 0 0 0 0 0 0 0 0 0 0 0 0 0 0 0 0 0 0 0 0 0 0 0 0 0 0 0 0 0 0 0 0 0 0
0 0 0 0 0 0 0 0 0 0 0 0 0 0 0 0 0 0 0 0 0 0 0 0 0 0 0 0 0 0 0 0 0 0 0 0 0 0 0 0 0 0 0
0 0 0 0 0 0 0 0 0 0 0 0 0 0 0 0 0 0 0 0 0 0 0 0 0 0 0 0 0 0 0 0 0 0 0 0 0 0 0 0 0 0 0
0 0 0 0 0 0 0 0 0 0 0 0 0 0 0 0 0 0 0 0 0 0 0 0 0 0 0 0 0 0 0 0 0 0 0 0 0 0 0 0 0 0 0
Wind_Speed
5 4 5 5 5 5 5 6 6 6 6 7 7 7 7 7 7 6 7 7 7 7 6 6 7 6 5 4 4 4 5 4 6 5 3 3 3 3 1 1 2 3 4
4 4 5 5 5 5 6 7 6 7 7 7 7 7 8 8 7 7 8 8 8 8 8 7 8 6 7 5 5 6 5 5 5 7 4 3 3 2 1 2 1 1 2
4 4 5 6 6 6 7 7 7 7 8 7 7 8 9 9 8 8 8 9 9 9 9 9 9 8 8 6 6 6 5 5 5 5 5 3 2 1 1 1 2 2 3
4 5 6 6 7 7 7 7 8 7 8 8 8 8 9 9 9 9 9 9 9 9 9 9 9 9 9 8 7 7 6 6 6 5 5 4 3 2 2 3 3 3 3
4 5 6 7 6 7 7 8 8 8 9 8 9 9 9 8 9 9 9 10 9 9 9 9 10 12 13 10 7 7 7 6 6 5 5 4 4 3 3 3 4 4 3
5 6 7 6 6 7 7 8 8 8 8 8 9 9 10 9 11 13 12 9 9 10 10 9 10 12 14 15 16 14 11 9 8 6 6 6 6 4 3 4 5 5 4
6 7 7 6 7 8 8 8 8 9 8 9 9 9 10 11 14 15 16 10 10 10 10 9 9 9 11 9 12 14 14 15 13 8 8 8 6 5 5 6 6 6 4
6 7 7 6 7 8 8 8 9 8 8 9 9 10 10 11 13 14 14 10 9 10 10 10 11 11 10 10 10 10 10 10 11 10 8 8 8 5 5 5 5 5 4
7 7 7 6 7 8 9 9 8 8 9 9 9 10 10 11 13 13 11 7 7 10 10 10 11 11 13 13 11 10 10 9 10 11 11 10 10 9 6 5 6 7 6
7 7 7 6 7 9 9 9 8 8 9 9 10 9 10 11 12 12 10 5 7 7 7 8 12 12 12 13 11 10 11 9 8 7 8 9 9 9 11 9 8 8 6
6 6 7 7 7 8 8 8 8 8 8 9 10 9 9 10 11 12 10 5 6 7 6 6 7 11 13 14 12 10 11 9 8 8 7 6 6 6 7 8 7 7 7
6 6 7 7 7 7 7 8 8 7 8 8 8 9 7 6 8 9 10 8 7 7 7 6 6 9 11 12 10 10 11 10 6 6 6 6 6 6 6 8 8 6 4
5 7 7 8 7 7 7 8 8 6 6 7 6 7 7 6 6 9 9 9 8 6 6 8 8 9 8 8 11 12 10 7 7 7 7 7 6 6 6 6 7 5 4
6 7 6 7 8 7 6 6 6 6 6 7 7 7 7 6 5 4 4 4 5 5 5 6 7 7 6 5 5 7 7 7 8 7 7 6 5 5 6 6 6 6 5
6 6 7 6 7 7 7 6 7 7 7 8 7 7 7 7 6 6 5 4 3 3 3 2 2 3 3 3 4 5 6 6 7 6 6 6 6 6 6 6 6 7 6
5 6 5 5 6 6 7 8 8 9 11 11 11 9 8 10 10 9 8 7 7 5 3 3 4 4 4 4 4 4 5 6 6 6 6 6 6 6 6 6 6 7 7
6 6 5 5 6 6 6 7 9 9 9 8 8 8 9 9 8 7 7 6 6 4 3 4 4 4 4 4 4 4 5 5 5 6 6 6 6 6 6 6 7 7 7
6 7 6 5 6 6 6 6 6 7 8 7 6 7 8 8 7 6 5 3 3 3 4 4 5 4 4 4 4 4 4 4 5 6 6 6 6 5 6 7 7 8 8
5 4 5 5 5 6 6 6 6 6 6 6 6 5 5 5 5 5 3 3 4 4 4 5 5 4 4 4 4 4 5 5 5 6 6 6 6 6 5 6 7 10 9
4 8 7 5 5 5 5 5 6 6 6 6 6 5 4 3 3 3 3 4 4 5 5 5 5 5 4 4 4 4 5 5 6 6 6 6 6 6 6 7 7 8 8
4 5 8 6 5 5 5 5 5 5 6 6 6 5 6 4 4 5 4 4 5 5 5 5 4 4 4 3 3 4 5 5 5 6 6 6 7 6 6 7 7 8 8
3 4 4 5 5 5 5 5 5 5 6 6 5 5 5 3 4 4 4 5 5 5 5 5 4 4 4 4 4 4 4 5 5 5 5 5 6 6 7 7 7 8 9
4 4 4 4 4 5 5 4 4 5 5 5 5 5 4 4 4 4 4 5 4 4 4 4 4 4 3 3 3 4 4 4 5 5 5 5 6 6 6 7 9 9 10
4 4 4 4 4 4 4 4 4 4 5 5 5 4 4 5 5 5 5 5 4 4 3 3 3 4 4 2 2 2 3 3 4 5 7 7 7 6 7 7 8 11 11
3 3 3 3 3 3 4 4 4 4 4 4 4 4 5 5 5 5 5 5 5 4 4 3 2 2 2 0 0 0 1 3 3 4 5 6 7 8 8 9 8 9 10
3 3 3 3 3 3 3 3 4 4 4 4 4 4 5 5 5 5 5 5 5 4 4 3 3 3 2 1 1 1 1 1 3 4 4 5 7 7 8 7 10 9 11
Wind_Direction
269 269 274 275 275 275 271 270 271 274 276 275 275 276 275 273 267 256 254 253 251 256 254 246 250 247 245 244 239 239 240 240 262 278 272 287 284 275 263 208 198 196 194
268 272 273 276 282 283 279 277 276 276 276 274 274 274 275 273 266 260 262 261 251 253 253 248 251 251 245 242 237 238 240 236 248 272 284 283 280 263 229 174 142 144 148
274 276 280 282 280 279 279 281 281 278 279 279 274 271 272 272 270 265 260 259 255 251 249 246 247 246 248 243 238 239 240 242 236 252 270 271 273 242 197 153 133 122 114
275 275 277 277 276 278 281 282 280 278 278 279 276 272 270 271 270 269 265 261 258 254 249 245 243 240 242 243 240 238 238 241 241 244 256 261 257 235 195 174 155 139 124
275 274 273 277 279 280 281 281 281 279 278 275 276 276 273 270 266 262 261 262 259 259 254 248 244 241 240 237 235 231 229 231 235 236 243 248 242 216 204 178 162 139 115
269 272 277 282 283 282 282 284 285 284 282 279 276 274 274 271 268 267 267 266 262 260 259 254 249 252 251 248 243 236 225 223 227 229 229 234 238 221 204 181 158 157 154
269 274 279 279 282 283 287 290 287 286 283 283 280 275 273 272 269 270 271 268 262 259 256 254 255 251 244 239 242 242 237 232 224 224 229 229 230 218 198 191 184 171 156
272 275 277 277 281 286 288 288 286 284 283 282 281 279 277 276 272 269 270 268 261 258 254 251 250 253 248 236 235 237 238 237 232 230 232 232 228 216 206 195 176 143 114
272 274 276 276 282 288 289 288 286 285 286 283 282 281 278 279 276 273 271 266 262 262 259 253 249 250 245 233 232 235 238 240 240 234 228 231 224 211 198 176 170 166 155
269 273 276 276 278 282 283 284 283 282 283 287 286 281 276 276 277 274 270 258 262 265 263 257 251 248 243 229 228 228 233 235 233 230 224 228 226 215 201 194 184 180 158
269 275 277 276 276 277 279 280 284 286 288 288 287 285 279 273 276 275 271 254 254 263 263 261 255 246 241 232 225 227 229 224 223 223 222 221 220 212 206 204 195 190 175
271 275 279 281 282 285 283 287 287 286 290 292 292 293 286 277 271 276 272 262 253 254 258 259 259 255 245 236 228 227 221 214 218 215 218 217 215 212 207 201 197 198 185
273 278 283 289 287 284 284 290 295 291 287 290 291 292 296 293 280 273 272 273 271 255 256 261 263 264 257 241 233 224 214 211 209 210 214 214 212 210 198 191 185 173 146
270 280 286 292 296 297 291 283 285 289 291 291 291 293 296 295 290 286 284 283 279 268 269 271 268 265 257 248 231 219 214 208 206 212 212 209 202 201 198 187 177 163 147
267 277 286 287 289 298 297 286 281 274 267 276 285 284 290 292 287 286 286 283 279 276 288 280 267 254 247 239 226 214 208 202 206 209 206 202 198 199 196 185 173 166 164
264 277 283 291 295 297 301 306 290 276 282 274 262 262 271 265 277 289 287 282 281 275 263 258 259 253 244 238 226 216 207 203 201 200 202 202 197 193 192 184 178 174 168
250 269 282 288 294 299 300 303 311 314 307 295 285 283 274 279 282 284 287 289 281 257 245 257 259 256 249 239 230 222 217 205 195 197 200 199 195 189 186 186 182 176 171
252 268 276 280 287 291 293 294 295 302 311 314 309 299 297 291 287 285 286 290 275 241 243 256 262 259 250 241 231 224 218 206 197 198 200 197 191 188 186 185 183 177 168
251 264 273 279 283 287 289 292 294 297 298 303 310 311 307 300 290 277 249 245 264 269 261 258 260 256 250 243 234 223 214 208 204 198 199 196 190 187 189 187 181 173 167
250 268 280 282 290 295 297 300 303 305 306 307 308 311 318 312 302 291 256 251 258 264 263 263 264 258 250 238 228 219 210 206 202 201 198 194 191 189 191 188 180 173 173
248 272 288 290 286 289 294 298 301 303 304 305 303 301 303 292 290 290 287 275 265 264 263 261 262 260 252 241 226 216 207 202 198 196 193 188 186 189 190 184 181 174 168
237 258 275 283 288 292 296 296 298 301 306 308 310 314 317 303 298 297 292 288 280 269 264 259 261 256 248 240 226 211 206 203 196 191 187 185 181 184 182 179 177 172 167
228 254 274 280 284 295 302 304 308 310 311 313 313 318 323 318 312 308 305 302 296 286 275 262 261 264 256 242 229 216 208 204 198 190 183 180 181 181 178 176 177 173 171
222 245 265 280 289 297 305 309 313 316 317 320 321 321 321 319 318 317 314 310 307 302 295 287 274 271 267 247 226 219 214 207 195 195 194 188 181 176 175 176 178 178 173
216 236 254 269 284 296 305 312 319 322 323 326 328 329 326 324 326 327 327 327 327 326 331 331 323 315 311 292 159 181 182 193 199 194 188 186 181 177 175 175 175 172 169
210 227 245 265 281 294 305 313 322 326 328 332 331 331 331 332 335 338 338 341 343 343 348 353 4 12 17 29 44 58 94 173 194 196 189 179 177 178 176 176 175 172 168